www.pogodaiklimat.ru

Погода и климат >> Архив погоды >> Россия >> Ямало-Ненецкий АО >> Тазовский


АРХИВ ПОГОДЫ в Тазовском

Время (UTC), дата Ветер
(напр.,м/с)
 
Видим.   Явления Облачность Т
(С)
Тd
(С)
f
(%)
Тe
(С)
Тes
(С)
Комфортность P
(гПа)
Po
(гПа)
Тmin
(С)
Tmax
(С)
R
(мм)
R24
(мм)
S
(см)
00 17.01 ЮЗ 3 1000 м дымка {снег} 10/10 30 м
[St]
-20.0 -22.0 84 -28 -28 1011.6 1007.9
03 17.01 ЮЗ 4 20 км слаб. снег {туман} 10/8 150 м
[Frnb Ac As]
-20.7 -22.8 83 -30 -30 1013.1 1009.3 -28.1 0.0 52
06 17.01 Ю 3 10 км слаб. снег {туман} 10/8 120 м
[Frnb Ac As]
-21.5 -23.7 82 -29 -29 1014.2 1010.4
09 17.01 ЮВ 3 20 км {снег} 8/3 200 м
[St Ac trans Ci fib]
-22.7 -25.1 81 -31 -31 опасность
обморожения
1013.1 1009.3
12 17.01 ЮВ 6 20 км слаб. снег [диам. изморози 4 мм] 10/0
[Ac As]
-18.7 -20.7 84 -29 -29 1010.4 1006.6
15 17.01 ЮВ 10-14
{14}
2000 м ливневой снег 10/10 180 м
[Cb calv]
-14.5 -16.5 85 -26 -26 1003.7 1000.0 -14.4 1
18 17.01 Ю 9-14
{16}
20 км позёмок {ливн. осадки, снег} 10/0
[Ac As]
-9.6 -10.7 92 -20 -20 1001.0 997.4
21 17.01 Ю 9-13
{14}
20 км позёмок 10/0
[Cs]
-7.1 -8.1 93 -17 -17 998.9 995.3
00 18.01 Ю 8-12
{15}
4000 м слаб. ливневой снег {метель} 10/10 150 м
[Cb calv]
-7.5 -8.6 92 -17 -17 997.0 993.5
03 18.01 Ю 9-13
{13}
4000 м слаб. ливневой снег {метель} 10/10 120 м
[Cb calv]
-8.1 -9.3 91 -18 -18 994.5 991.0 -14.5 0.3
06 18.01 Ю 9-13
{14}
2000 м ливневой снег {метель} 10/10 120 м
[Cb calv]
-8.5 -9.6 92 -19 -19 993.0 989.5
09 18.01 ЮЗ 9-14
{15}
2000 м ливневой снег {метель} 10/10 180 м
[Cb calv]
-8.6 -9.8 91 -19 -19 992.8 989.2
12 18.01 ЮЗ 8-12
{15}
4000 м слаб. ливневой снег {метель} 10/10 150 м
[Cb calv]
-9.0 -10.1 92 -19 -19 994.3 990.8
15 18.01 Ю 8-11
{14}
20 км слаб. ливневой снег {метель} 10/8 400 м
[Cb cap Cs]
-9.4 -10.6 91 -19 -19 994.8 991.2 -8.1 2
18 18.01 Ю 8-11
{12}
4000 м слаб. снег 10/6 120 м
[Frnb As op]
-8.9 -10.0 92 -19 -19 994.4 990.9
21 18.01 Ю 6
{11}
20 км слаб. снег {метель} 10/6 120 м
[Frnb As op]
-9.6 -10.8 91 -18 -18 993.4 989.9
00 19.01 Ю 5
{11}
20 км слаб. снег {метель} 10/0
[As op]
-9.5 -10.6 92 -17 -17 992.0 988.5
03 19.01 Ю 6 20 км слаб. снег {метель} 10/6 150 м
[Frnb Ac As]
-9.9 -11.1 91 -18 -18 990.5 987.0 -10.1 0.6 56
06 19.01 Ю 4 4000 м слаб. снег {метель} 10/10 120 м
[Sc]
-10.2 -11.4 91 -17 -17 989.4 985.9 -10.3
09 19.01 ЮЗ 5 10 км слаб. снег 10/6 120 м
[Frnb As op]
-11.3 -12.6 90 -19 -19 989.6 986.1
12 19.01 З 7 4000 м мгла {снег} 10/0
[Cs]
-19.1 -21.1 84 -31 -31 опасность
обморожения
992.5 988.8
15 19.01 ЮЗ 9-11
{11}
20 км 10/0
[Cs]
-21.5 -23.7 82 -35 -35 опасность
обморожения
994.6 990.9 -9.8 1
18 19.01 ЮЗ 9-11
{11}
20 км слаб. снег {метель} 10/0
[Cs]
-20.5 -22.6 83 -34 -34 опасность
обморожения
995.8 992.1
21 19.01 ЮЗ 9-12
{12}
20 км слаб. снег {метель} 10/0
[Cs]
-20.6 -22.7 83 -34 -34 опасность
обморожения
997.9 994.2
00 20.01 З 9-12
{12}
20 км слаб. снег {метель} 10/0
[Cs]
-22.4 -24.6 82 -36 -36 опасность
обморожения
999.7 995.9
03 20.01 З 7
{10}
4000 м мгла {снег} 8/0
[Ci fib]
-25.2 -27.7 80 -38 -38 опасность
обморожения
1001.3 997.5 -25.2 0.4 56
06 20.01 З 7
{11}
10 км 6/3 200 м
[St Ci fib]
-25.6 -28.2 79 -39 -39 опасность
обморожения
1003.6 999.8 -26.2
09 20.01 З 7
{12}
20 км 10/3 200 м
[St Cs]
-26.8 -29.5 78 -40 -40 опасность
обморожения
1006.6 1002.8
12 20.01 З 7
{10}
20 км ясно -28.6 -31.5 76 -43 -43 опасность
обморожения
1009.9 1006.0
15 20.01 З 5 20 км ясно -28.6 -31.6 75 -41 -41 опасность
обморожения
1012.1 1008.2 -25.2
18 20.01 ЮЗ 3 20 км 10/0
[Cs]
-26.8 -29.4 79 -36 -36 опасность
обморожения
1013.7 1009.8
21 20.01 ЮЗ 7-10
{10}
20 км 10/0
[Cs]
-25.2 -27.8 79 -38 -38 опасность
обморожения
1015.1 1011.2
00 21.01 ЮВ 3
{10}
20 км 10/6 180 м
[St Cs]
-28.2 -31.1 76 -37 -37 опасность
обморожения
1015.8 1011.8
03 21.01 ЮВ 3 20 км 10/6 180 м
[St Cs]
-28.3 -31.1 77 -38 -38 опасность
обморожения
1016.6 1012.7 -29.5 56
06 21.01 ЮВ 3 20 км 8/3 200 м
[St Ci fib]
-28.1 -30.9 77 -37 -37 опасность
обморожения
1016.9 1013.0
09 21.01 ЮВ 4 20 км 10/0
[Cs]
-27.5 -30.3 77 -38 -38 опасность
обморожения
1016.2 1012.3
12 21.01 В 3 20 км 10/5 240 м
[St Ac As]
-24.1 -26.6 80 -33 -33 опасность
обморожения
1014.2 1010.3
15 21.01 В 7-10
{11}
20 км позёмок 9/0
[As trans]
-19.9 -22.0 83 -32 -32 опасность
обморожения
1010.0 1006.3 -19.9
18 21.01 В 11-14
{16}
4000 м слаб. снег {метель} 10/8 120 м
[Frnb Ac As]
-17.1 -18.9 86 -30 -30 1006.7 1003.0
21 21.01 ЮВ 9-16
{17}
2000 м снег {метель} 10/8 120 м
[Frnb Ac As]
-16.0 -17.7 87 -28 -28 1004.7 1001.0
00 22.01 ЮВ 7-10
{16}
4000 м слаб. снег {метель} 10/6 120 м
[Frnb Ac As]
-15.4 -17.1 87 -26 -26 1003.1 999.4
03 22.01 ЮВ 5
{11}
4000 м слаб. снег {метель} 10/6 180 м
[Frnb As op]
-14.8 -16.3 88 -24 -24 1002.7 999.0 -19.9 3 60
06 22.01 Ю 6 4000 м слаб. ливневой снег 10/6 180 м
[Cb cap Cs]
-15.6 -17.3 87 -25 -25 1003.8 1000.1
09 22.01 ЮЗ 6
{10}
20 км позёмок {ливн. осадки} 6/0
[Ci fib]
-21.7 -23.9 82 -33 -33 опасность
обморожения
1006.2 1002.4
12 22.01 Ю 3 20 км {ливн. осадки, метель} 6/5 210 м
[St Ci fib]
-25.0 -27.6 79 -34 -34 опасность
обморожения
1008.1 1004.2
15 22.01 Ю 4 20 км 9/0
[Ac trans]
-25.2 -27.7 80 -35 -35 опасность
обморожения
1008.8 1005.0 -14.0 0.5
18 22.01 ЮВ 3 20 км слаб. снег 10/0
[As op]
-21.6 -23.8 82 -30 -30 1010.1 1006.3
21 22.01 ЮВ 3 20 км слаб. снег 10/0
[As op]
-23.1 -25.5 81 -31 -31 опасность
обморожения
1010.5 1006.7
00 23.01 В 1 20 км слаб. снег 10/0
[Ac As]
-24.8 -27.3 80 -28 -28 1011.0 1007.2
03 23.01 ЮВ 4 20 км слаб. снег 10/5 120 м
[Frnb Ac As]
-22.0 -24.2 82 -31 -31 опасность
обморожения
1011.1 1007.3 -25.1 0.4 61
06 23.01 ЮВ 3 20 км {снег} 10/3 300 м
[St Ac trans Cs]
-22.8 -25.2 81 -31 -31 опасность
обморожения
1011.5 1007.7
09 23.01 ЮВ 2 20 км 10/0
[Ac trans Cs]
-24.3 -26.8 80 -31 -31 опасность
обморожения
1012.4 1008.5
12 23.01 ЮВ 3 20 км ясно -26.3 -29.0 78 -35 -35 опасность
обморожения
1013.5 1009.6
15 23.01 ЮВ 2 20 км в посл. час снег 3/0
[Ci fib]
-26.2 -28.9 78 -33 -33 опасность
обморожения
1014.6 1010.8 -21.7 0.3
18 23.01 Ю 3 20 км {снег} 6/0
[Ci fib]
-25.4 -28.0 79 -34 -34 опасность
обморожения
1015.9 1012.0

 

Местоположение метеостанции Тазовский (Ямало-Ненецкий АО, Россия): широта 67.47 долгота 78.73 высота над уровнем моря 28 м.

В архиве по умолчанию представлена погода в Тазовском за последнюю неделю. Архивные данные за месяц целиком и за предыдущие месяцы, начиная с января 2011 года, Вы можете получить, выбрав интересующий диапазон дат из раскрывающегося списка и нажав кнопку "Ввод!".


*Определитесь, кто Вы:
робот инопланетянин человек

Внимание! Время в таблицах - всемирное. Для получения местного времени необходимо прибавить поправку, которая равна 5 ч.

Смотрите также архив погоды в соседних городах и на ближайших метеорологических станциях:

Погода в Уренгое (Ямало-Ненецкий АО, Россия) (170 км)
Погода в Новом Уренгое (Ямало-Ненецкий АО, Россия) (175 км)
Погода в Антипаюте (Ямало-Ненецкий АО, Россия) (195 км)
Погода в Советской Речке (Красноярский край, Россия) (231 км)
Погода в Новом Порте (Ямало-Ненецкий АО, Россия) (249 км)
Погода в Красноселькупске (Ямало-Ненецкий АО, Россия) (256 км)
Погода в Пангодах (Ямало-Ненецкий АО, Россия) (261 км)
Погода в Ныде (Ямало-Ненецкий АО, Россия) (268 км)
Погода в Тарко-Сале (Ямало-Ненецкий АО, Россия) (287 км)
Погода в Игарке (Красноярский край, Россия) (334 км)

Пояснения к столбцам:

Ветер - указаны скорость ветра в м/с - средняя за 10 мин, порывы в срок и между сроками (в фигурных скобках) и направление, откуда дует ветер: С - северный, СВ - северо-восточный, В - восточный, ЮВ - юго-восточный, Ю - южный, ЮЗ - юго-западный, З - западный, СЗ - северо-западный.
Видимость - горизонтальная дальность видимости в метрах или километрах. При видимости от 1 до 10 км при отсутствии осадков обычно наблюдается дымка, при ухудшении видимости до 1 км и менее - туман. В сухую погоду видимость может ухудшаться дымом, пылью или мглою.
Явления - указаны атмосферные явления, наблюдавшиеся в срок или в последний час перед сроком; фигурными скобками обозначены явления, наблюдавшиеся между сроками (за 1-3 часа до срока); квадратными скобками обозначены град или гололедные отложения с указанием их диаметра в мм.
Облачность - указаны через наклонную черту общая и нижняя облачность в баллах и высота нижней границы облаков в метрах; квадратными скобками обозначены формы облаков: Ci - перистые, Cs - перисто-слоистые, Cc - перисто-кучевые, Ac - высококучевые, As - высокослоистые, Sc - слоисто-кучевые, Ns - слоисто-дождевые, Cu - кучевые, Cb - кучево-дождевые. Подробнее классификацию облаков см. в Атласе облаков (PDF).
T - Температура воздуха - температура, измеренная на высоте 2 м над землей.
Td - Температура точки росы - температура, при понижении до которой содержащийся в воздухе водяной пар достигнет насыщения.
f - Относительная влажность воздуха - влажноcть воздуха, измеренная на высоте 2 м над землей.
Te - Эффективная температура - температура, которую ощущает одетый по сезону человек в тени. Характеристика душности погоды. При расчете учитывается влияние влажности воздуха и скорости ветра на теплоощущения человека.
Tes - Эффективная температура на солнце - температура, которую ощущает человек, с поправкой на солнечный нагрев. Характеристика знойности погоды. Зависит от высоты солнца над горизонтом, облачности и скорости ветра. Ночью, в пасмурную погоду, а также при ветре 12 м/с и более поправка равна нулю.
P - Атмосферное давление - приведенное к уровню моря атмосферное давление.
Po - Атмосферное давление - измеренное на уровне метеостанции атмосферное давление.
Tmin - Минимальная температура - минимум температуры воздуха на высоте 2 м над землей.
Tmax - Максимальная температура - максимум температуры воздуха на высоте 2 м над землей.
R - Количество осадков - Количество выпавших осадков за период времени, мм. При наведении курсора мыши на число - период времени, за который выпало указанное количество осадков.
R24 - Количество осадков - Количество выпавших осадков за 24 часа, мм.
S - Снежный покров - Высота снежного покрова, см. При наведении курсора мыши на число - состояние снежного покрова и степень покрытия местности в баллах.